Regional Weather Roundup
Issued by NWS

Home | Current Version | Previous Version | Text Only | Print | Product List | Glossary On
Versions: 1 2 3 4 5 6 7 8 9 10 11 12 13 14 15 16 17 18 19 20 21 22 23 24 25 26 27 28 29 30 31 32 33 34 35 36 37 38 39 40 41 42 43 44 45 46 47 48 49 50
000
ASUS46 KSEW 191310
RWRWA

WASHINGTON REGIONAL WEATHER ROUNDUP
NATIONAL WEATHER SERVICE SEATTLE WA
600 AM PDT THU OCT 19 2017

NOTE:"FAIR" INDICATES FEW OR NO CLOUDS BELOW 12,000 FEET WITH NO
SIGNIFICANT WEATHER AND/OR OBSTRUCTIONS TO VISIBILITY.

WAZ507-509-555>559-191400-
SEATTLE, TACOMA, EVERETT, AND VICINITY

CITY           SKY/WX    TMP DP  RH WIND       PRES   REMARKS
EVERETT        CLOUDY    51  49  92 SE16G24   29.59S
BOEING FIELD   LGT RAIN  53  51  93 S9        29.61S
RENTON         LGT RAIN  53  53 100 S5        29.62R
SEATAC AIRPORT LGT RAIN  52  51  97 S9        29.62R
JBLM-MCCHORD   LGT RAIN  52  52 100 S8        29.62S
PUYALLUP       DRIZZLE   52  52 100 SE3       29.62F
BREMERTON      LGT RAIN  51  50  96 S9        29.60S
JBLM-FT LEWIS  LGT RAIN  52  52 100 SW5       29.61S
TACOMA NARROWS CLOUDY    51  50  96 S10       29.62S
$$

WAZ001-503-506-510-514-515-191400-
NORTH INTERIOR

CITY           SKY/WX    TMP DP  RH WIND       PRES   REMARKS
BELLINGHAM     CLOUDY    54  50  86 S15       29.54S
FRIDAY HARBOR  CLOUDY    51  51 100 SE9       29.54S
EASTSOUND      CLOUDY    54  50  87 S14       29.52F
PORT ANGELES   CLOUDY    49  48  97 CALM      29.53F
EDIZ HOOK      LGT RAIN  49  47  92 SW5       29.52S
PORT TOWNSEND  CLOUDY    52  50  93 SE6       29.54S
NAS WHIDBEY    CLOUDY    56  48  74 SE14      29.58S
ARLINGTON      CLOUDY    53  49  86 SE18      29.58S
BURLINGTON     CLOUDY    54  50  87 SE9G15    29.55F
$$

WAZ020-022-039-040-504-511-512-191400-
SOUTHWEST INTERIOR

CITY           SKY/WX    TMP DP  RH WIND       PRES   REMARKS
SHELTON        LGT RAIN  52  50  93 CALM      29.57F
OLYMPIA        RAIN      51  51 100 S7        29.59F FOG
CHEHALIS       LGT RAIN  54  54 100 VRB5      29.62F
KELSO          LGT RAIN  54  53  97 SE6       29.64F
VANCOUVER      LGT RAIN  55  54  96 SE6       29.67F
SCAPPOOSE, OR  RAIN      54  53  97 E10       29.65F FOG
PORTLAND, OR   LGT RAIN  55  53  93 S8        29.68S
$$

WAZ021-516-517-191400-
WASHINGTON COAST

CITY           SKY/WX    TMP DP  RH WIND       PRES   REMARKS
FORKS          CLOUDY    53  51  93 S12G28    29.51S
HOQUIAM        CLOUDY    54  52  93 SE13      29.57F
ASTORIA, OR    LGT RAIN  54  51  90 S13       29.61F
$$

WAZ019-023-024-040-567>569-191400-
CASCADE MOUNTAINS AND COLUMBIA GORGE

CITY           SKY/WX    TMP DP  RH WIND       PRES   REMARKS
STAMPEDE PASS  LGT RAIN  40  39  97 VRB3      29.62S VSB 3/4
TROUTDALE, OR  LGT RAIN  55  53  93 CALM      29.69S FOG
HOOD RIVER, OR LGT RAIN  52  52 100 CALM      29.66F
THE DALLES, OR CLOUDY    58  51  78 NW17      29.64S
$$

WAZ026-027-041>044-520-521-191400-
EAST SLOPES

CITY           SKY/WX    TMP DP  RH WIND       PRES   REMARKS
OMAK           CLOUDY    48  46  93 SE6       29.56F
WENATCHEE      CLOUDY    47  46  97 NW8       29.59F
ELLENSBURG     LGT RAIN  51  43  74 W13       29.61R
YAKIMA         LGT RAIN  59  47  64 S21G31    29.58S
SUNNYSIDE ARPT CLOUDY    53  44  73 CALM      29.62S
YAKIMA TC      PTSUNNY   54  45  70 CALM      29.59R
$$

WAZ028-034-035-191400-
COLUMBIA BASIN

CITY           SKY/WX    TMP DP  RH WIND       PRES   REMARKS
EPHRATA        CLOUDY    56  42  59 SW13      29.57S
MOSES LAKE     CLOUDY    59  44  57 SW15      29.59F
PASCO          CLOUDY    56  47  71 VRB6      29.62S
RICHLAND ARPT  CLOUDY    60  44  55 SE6       29.62S
HERMISTON, OR  CLOUDY    47  38  71 E5        29.62S
$$

WAZ036>038-191400-
NORTHEAST WASHINGTON

CITY           SKY/WX    TMP DP  RH WIND       PRES   REMARKS
SPOKANE GEIGER CLOUDY    56  39  53 SW17G25   29.61F
SPOKANE FELTS  CLOUDY    58  39  49 SW7       29.64R
FAIRCHILD AFB  PTCLDY    55  39  54 SW17      29.62R
COEURDALENE,ID CLOUDY    56  39  53 S7        29.65S
DEER PARK      CLOUDY    50  45  83 CALM      29.63S
$$

WAZ029>033-191400-
SOUTHEAST WASHINGTON

CITY           SKY/WX    TMP DP  RH WIND       PRES   REMARKS
PULLMAN        CLOUDY    50  38  63 NE7       29.70S
LEWISTON, ID   CLOUDY    44  43  96 CALM      29.70S
WALLA WALLA    MOCLDY    55  37  50 NE5       29.63R
PENDLETON, OR  CLOUDY    64  27  24 S7        29.64S
$$



USA.gov is the U.S. government's official web portal to all federal, state and local government web resources and services.